Regional Weather Roundup
Issued by NWS

Home | Current Version | Previous Version | Text Only | Print | Product List | Glossary On
Versions: 1 2 3 4 5 6 7 8 9 10 11 12 13 14 15 16 17 18 19 20 21 22 23 24 25 26 27 28 29 30 31 32 33 34 35 36 37 38 39 40 41 42 43 44 45 46 47 48 49 50
000
ASUS45 KABQ 190510
RWRNM
NEW MEXICO REGIONAL WEATHER ROUNDUP
NATIONAL WEATHER SERVICE ALBUQUERQUE NM
1000 PM MST SAT NOV 18 2017

NOTE: "FAIR" MEANS FEW OR NO CLOUDS BELOW 12,000 FEET AGL WITH NO
       SIGNIFICANT WEATHER OR OBSTRUCTIONS TO VISION.

      THIS PRODUCT IS RELEASED AS TWO VERSIONS.  ONE VERSION NEAR
      THE TOP OF THE HOUR CONTAINING PRELIMINARY DATA FROM ALBUQUERQUE
      AND OTHER STATIONS.  A FINAL VERSION WITH ADDITIONAL DATA IS
      ISSUED ABOUT 10 MINUTES AFTER THE HOUR.

NMZ501-503-504-510>518-190600-
NORTHWEST PLATEAU/NORTHCENTRAL MOUNTAINS

CITY           SKY/WX    TMP DP  RH WIND       PRES   REMARKS
FARMINGTON     FAIR      22   6  50 N5        30.37R WCI  16
LOS ALAMOS     FAIR      37  11  34 CALM      30.36R
SANTA FE       FAIR      24  12  60 N6        30.34S WCI  17
TAOS           FAIR      22   4  46 N3        30.38S
ANGEL FIRE     FAIR      19  11  71 CALM      30.37S

$$
NMZ402-403-502-505>509-190600-
WESTCENTRAL MOUNTAINS/SOUTHWEST MOUNTAINS

CITY           SKY/WX    TMP DP  RH WIND       PRES   REMARKS
GALLUP         FAIR      22   9  57 NE3       30.37R
GRANTS         FAIR      23   3  42 NW9       30.39R WCI  13
SILVER CITY    FAIR      32  16  52 N6        30.30S WCI  26

$$
NMZ407-409-411-412-190600-
SOUTHERN DESERTS

CITY           SKY/WX    TMP DP  RH WIND       PRES   REMARKS
DEMING         FAIR      41   6  23 E9        30.29R
LAS CRUCES     FAIR      48  22  36 SE9       30.30R
HOLLOMAN AFB   FAIR      37  12  35 NW6       30.33R WCI  32
ALAMOGORDO     FAIR      45  18  33 NW9       30.30S
T OR C         FAIR      42   3  19 NW8       30.31R

$$
NMZ519>523-190600-
CENTRAL VALLEYS/CENTRAL HIGHLANDS

CITY           SKY/WX    TMP DP  RH WIND       PRES   REMARKS
ALBUQUERQUE    FAIR      39   5  24 N5        30.34F
DOUBLE EAGLE   CLEAR     32   0  25 NW10      30.35S WCI  24
MORIARTY ARPT  FAIR      22   6  50 N5        30.35F WCI  15
CLINES CORNERS FAIR      31   4  31 NW8       30.34F WCI  23
BELEN          FAIR      30   4  33 NW8       30.35R WCI  22
SOCORRO        FAIR      34   0  23 NW7       30.35R WCI  28

$$
NMZ524>526-539-540-190600-
SOUTHCENTRAL MOUNTAINS

CITY           SKY/WX    TMP DP  RH WIND       PRES   REMARKS
RUIDOSO        FAIR      32  19  59 CALM      30.37F

$$
NMZ527>531-190600-
NORTHEAST HIGHLANDS/NORTHEAST PLAINS

CITY           SKY/WX    TMP DP  RH WIND       PRES   REMARKS
LAS VEGAS      FAIR      28  17  63 CALM      30.31S
RATON          FAIR      24  14  65 N5        30.31S WCI  18
CLAYTON        FAIR      29  13  51 SW9       30.30S WCI  20

$$
NMZ532>537-190600-
EASTCENTRAL PLAINS

CITY           SKY/WX    TMP DP  RH WIND       PRES   REMARKS
SANTA ROSA     FAIR      33  21  61 SW3       30.34R
TUCUMCARI      FAIR      30  14  51 SW7       30.31F WCI  23
CANNON AFB     FAIR      36  13  38 CALM      30.36S
CLOVIS AIRPORT FAIR      30  15  53 SW3       30.37R

$$
NMZ028-029-538-190600-
SOUTHEAST PLAINS

CITY           SKY/WX    TMP DP  RH WIND       PRES   REMARKS
ROSWELL        FAIR      37  16  42 S5        30.35S WCI  33
ARTESIA        FAIR      39  16  38 S9        30.36S WCI  33
CARLSBAD       FAIR      32  24  72 S6        30.35R WCI  26
HOBBS          FAIR      30  18  59 N6        30.37S WCI  24


$$




USA.gov is the U.S. government's official web portal to all federal, state and local government web resources and services.